Location: Krasnoyarskiy Pitomnik
(51.1333°N, 71.6167°E)
Time: 15:36:58
(UTC+00:00)

Cosmos 1844 Rocket - Pass Details

Date: 22 October 2021
Orbit: 826 x 843 km, 71.0° (Epoch: 27 November)

Event Time Altitude Azimuth Distance (km) Brightness Sun altitude
Rises 14:31:23 0° 328° (NNW) 3,378 6.5 -23.3°
Reaches altitude 10° 14:33:50 10° 326° (NW) 2,440 5.7 -23.7°
Maximum altitude 14:39:23 68° 245° (WSW) 890 2.9 -24.6°
Enters shadow 14:41:43 35° 173° (S) 1,311 3.5 -24.9°
